Location: Poughquag
(41.6090°N, 73.6820°W)
Time: 11:00:08
(UTC-04:00)

SR - Visible Passes

Search period start: 25 April 2025 00:00
Search period end: 05 May 2025 00:00
Orbit: 568 x 858 km, 66.7° (Epoch: 24 April)

Date Brightness Start Highest point End Pass type
(mag) Time Alt. Az. Time Alt. Az. Time Alt. Az.
28 Apr ? 05:22:31 10° SSE 05:27:16 29° ESE 05:32:09 10° NE visible
29 Apr ? 04:31:03 10° SE 04:33:34 13° ESE 04:36:08 10° ENE visible
30 Apr ? 05:15:06 10° S 05:20:24 44° ESE 05:25:53 10° NE visible
01 May ? 04:22:28 10° SSE 04:26:34 21° ESE 04:30:45 10° ENE visible
02 May ? 05:08:00 10° SSW 05:13:36 67° ESE 05:19:23 10° NE visible
03 May ? 04:14:41 10° S 04:19:37 32° ESE 04:24:42 10° NE visible
04 May ? 03:22:47 10° SE 03:25:52 15° ESE 03:29:00 10° ENE visible
04 May ? 05:01:11 10° SSW 05:06:53 83° WNW 05:12:44 10° NNE visible
